| time (UTC) | temp C | wind direction | speed KPH | gust KPH | rain 1hr cm | rain 24hr cm | rain mn cm | humidity % | barometer mb |
| 20260504001551 | 12 | 215 | 9.7 | 24.1 | 0.00 | 0.00 | 0.00 | 52 | 1007.5 |
| 20260504000121 | 12 | 285 | 8.0 | 16.1 | 0.00 | 0.00 | 0.00 | 52 | 1007.6 |
| 20260503234553 | 12 | 207 | 4.8 | 20.9 | 0.00 | 0.00 | 0.00 | 54 | 1007.8 |
| 20260503233044 | 11 | 202 | 4.8 | 11.3 | 0.00 | 0.00 | 0.00 | 59 | 1008.0 |
| 20260503231541 | 11 | 256 | 1.6 | 9.7 | 0.00 | 0.00 | 0.00 | 61 | 1008.1 |
| 20260503230039 | 11 | 272 | 3.2 | 11.3 | 0.00 | 0.00 | 0.00 | 63 | 1008.1 |
| 20260503224538 | 11 | 250 | 3.2 | 6.4 | 0.00 | 0.00 | 0.00 | 67 | 1008.2 |
| 20260503223039 | 11 | 257 | 3.2 | 8.0 | 0.00 | 0.00 | 0.00 | 66 | 1008.4 |
| 20260503221541 | 11 | 245 | 4.8 | 16.1 | 0.00 | 0.00 | 0.00 | 66 | 1008.4 |
| 20260503220028 | 11 | 229 | 4.8 | 14.5 | 0.00 | 0.00 | 0.00 | 63 | 1008.4 |
| 20260503214526 | 11 | 266 | 6.4 | 20.9 | 0.00 | 0.00 | 0.00 | 61 | 1008.2 |
| 20260503213021 | 11 | 216 | 8.0 | 22.5 | 0.00 | 0.00 | 0.00 | 61 | 1007.8 |
| 20260503211516 | 11 | 212 | 11.3 | 22.5 | 0.00 | 0.00 | 0.00 | 60 | 1007.7 |
| 20260503210010 | 11 | 240 | 8.0 | 32.2 | 0.00 | 0.00 | 0.00 | 60 | 1007.7 |
| 20260503204508 | 10 | 268 | 8.0 | 20.9 | 0.00 | 0.00 | 0.00 | 61 | 1007.8 |
| 20260503203018 | 11 | 226 | 9.7 | 17.7 | 0.00 | 0.00 | 0.00 | 60 | 1008.0 |
| 20260503201503 | 11 | 257 | 9.7 | 25.7 | 0.00 | 0.00 | 0.00 | 59 | 1008.2 |
| 20260503200002 | 11 | 257 | 8.0 | 22.5 | 0.00 | 0.00 | 0.00 | 57 | 1008.4 |
| 20260503194600 | 11 | 245 | 8.0 | 27.4 | 0.00 | 0.00 | 0.00 | 58 | 1008.6 |
| 20260503193057 | 11 | 224 | 8.0 | 22.5 | 0.00 | 0.00 | 0.00 | 57 | 1008.9 |
| 20260503191552 | 12 | 204 | 9.7 | 29.0 | 0.00 | 0.00 | 0.00 | 54 | 1009.1 |
| 20260503190049 | 12 | 246 | 11.3 | 22.5 | 0.00 | 0.00 | 0.00 | 55 | 1009.3 |
| 20260503184545 | 11 | 212 | 11.3 | 30.6 | 0.00 | 0.00 | 0.00 | 53 | 1009.6 |
| 20260503183045 | 11 | 237 | 14.5 | 27.4 | 0.00 | 0.00 | 0.00 | 53 | 1009.8 |
| 20260503181539 | 11 | 246 | 9.7 | 22.5 | 0.00 | 0.00 | 0.00 | 50 | 1010.0 |
| 20260503180040 | 11 | 226 | 16.1 | 43.5 | 0.00 | 0.00 | 0.00 | 45 | 1010.3 |
| 20260503174535 | 11 | 214 | 20.9 | 32.2 | 0.00 | 0.00 | 0.00 | 48 | 1010.4 |
| 20260503173047 | 11 | 203 | 11.3 | 32.2 | 0.00 | 0.00 | 0.00 | 54 | 1010.7 |
| 20260503171534 | 10 | 229 | 9.7 | 24.1 | 0.00 | 0.00 | 0.00 | 60 | 1011.0 |
| 20260503081535 | -17 | 0.0 | 0.0 | 0.00 | 0.00 | 0.00 | 1013.2 | ||
| 20260503071514 | -17 | 0.0 | 0.0 | 0.00 | 0.00 | 0.00 | 1013.1 | ||
| 20260503060104 | -17 | 0.0 | 0.0 | 0.00 | 0.00 | 0.00 | 1013.4 | ||
| 20260503054546 | -17 | 0.0 | 0.0 | 0.00 | 0.00 | 0.00 | 1013.4 | ||
| 20260503053042 | -17 | 0.0 | 0.0 | 0.00 | 0.00 | 0.00 | 1013.5 | ||
| 20260503051535 | -17 | 0.0 | 0.0 | 0.00 | 0.00 | 0.00 | 1013.6 | ||
| 20260503050002 | -17 | 0.0 | 0.0 | 0.00 | 0.00 | 0.00 | 1013.7 | ||
| 20260503044606 | -17 | 0.0 | 0.0 | 0.00 | 0.00 | 0.00 | 1013.7 | ||
| 20260503043056 | -17 | 0.0 | 0.0 | 0.00 | 0.00 | 0.00 | 1013.7 | ||
| 20260503041546 | 2 | 212 | 0.0 | 1.6 | 0.00 | 0.00 | 0.00 | 79 | 1014.0 |
| 20260503040041 | 3 | 207 | 0.0 | 3.2 | 0.00 | 0.00 | 0.00 | 79 | 1014.0 |
| 20260503034540 | 3 | 212 | 0.0 | 3.2 | 0.00 | 0.00 | 0.00 | 80 | 1014.0 |
| 20260503033051 | 3 | 217 | 1.6 | 4.8 | 0.00 | 0.00 | 0.00 | 80 | 1014.1 |
| 20260503031536 | 3 | 210 | 1.6 | 4.8 | 0.00 | 0.00 | 0.00 | 79 | 1014.1 |
| 20260503030030 | 4 | 225 | 1.6 | 4.8 | 0.00 | 0.00 | 0.00 | 77 | 1014.1 |
| 20260503024529 | 4 | 224 | 1.6 | 4.8 | 0.00 | 0.00 | 0.00 | 76 | 1014.2 |
| 20260503023041 | 4 | 212 | 1.6 | 4.8 | 0.00 | 0.00 | 0.00 | 74 | 1014.3 |
| 20260503021524 | 4 | 212 | 0.0 | 6.4 | 0.00 | 0.00 | 0.00 | 72 | 1014.4 |
| 20260503020023 | 5 | 198 | 1.6 | 4.8 | 0.00 | 0.00 | 0.00 | 70 | 1014.5 |
| 20260503014521 | 5 | 211 | 0.0 | 4.8 | 0.00 | 0.00 | 0.00 | 70 | 1014.4 |
| 20260503013018 | 5 | 223 | 1.6 | 4.8 | 0.00 | 0.00 | 0.00 | 69 | 1014.5 |
| 20260503011516 | 5 | 234 | 3.2 | 6.4 | 0.00 | 0.00 | 0.00 | 69 | 1014.4 |
| 20260503010021 | 5 | 236 | 1.6 | 3.2 | 0.00 | 0.00 | 0.00 | 67 | 1014.4 |
| 20260503004512 | 5 | 244 | 0.0 | 6.4 | 0.00 | 0.00 | 0.00 | 66 | 1014.3 |
| 20260503003011 | 5 | 231 | 1.6 | 6.4 | 0.00 | 0.00 | 0.00 | 72 | 1014.3 |